Effective Sunday, March 17, 2024, the National Weather Service National Data Buoy Center will discontinue its Dial-A-Buoy Interactive Voice Response system. For more information, see Service Change Notice 24-06 (PDF).

Station WLON7 - 8658120 - Wilmington, NC Image indicating link to RSS feed of recent meteorological observations for station WLON7


Conditions at WLON7 as of
(12:00 am EST)
0500 GMT on 03/02/2024:
     

Click on the graph icon in the table below to see a time series plot of the last five days of that observation.

5-day plot - Atmospheric Pressure Atmospheric Pressure (PRES):30.22 in
5-day plot - Pressure Tendency Pressure Tendency (PTDY):-0.06 in ( Falling )
5-day plot - Air Temperature Air Temperature (ATMP): 61.2 °F
5-day plot - Water Temperature Water Temperature (WTMP): 56.1 °F
NOS Water Level Observation Network Water Level
Previous observations
TIME
(EST)
5-day plot - Wind Direction
WDIR
 
5-day plot - Wind Speed
WSPD
kts
5-day plot - Wind Gust
GST
kts
5-day plot - Wave Height
WVHT
ft
5-day plot - Dominant Wave Period
DPD
sec
5-day plot - Average Wave Period
APD
sec
5-day plot - Mean Wave Direction
MWD
 
5-day plot - Atmospheric Pressure
PRES
in
5-day plot - Pressure Tendency
PTDY
in
5-day plot - Air Temperature
ATMP
°F
5-day plot - Water Temperature
WTMP
°F
5-day plot - Dew Point
DEWP
°F
5-day plot - Salinity
SAL
psu
5-day plot - Visibility
VIS
nmi
5-day plot - Tide (above MLLW)
TIDE
ft
2024-03-01 11:54 pm-------30.21- 61.0 56.1----
2024-03-01 11:48 pm-------30.22- 60.6 56.1----
2024-03-01 11:42 pm-------30.22- 60.6 56.1----
2024-03-01 11:36 pm-------30.23- 60.4 56.1----
2024-03-01 11:30 pm-------30.23- 60.6 56.1----
2024-03-01 11:24 pm-------30.23- 61.2 56.1----
2024-03-01 11:18 pm-------30.23- 61.0 56.1----
2024-03-01 11:12 pm-------30.24- 60.8 56.1----
2024-03-01 11:06 pm-------30.24- 60.6 56.1----
2024-03-01 11:00 pm-------30.24-0.05 60.8 56.1----
2024-03-01 10:54 pm-------30.24- 60.4 56.1----
2024-03-01 10:48 pm-------30.25- 60.4 56.1----
2024-03-01 10:42 pm-------30.25- 60.6 56.1----
2024-03-01 10:36 pm-------30.25- 60.3 56.1----
2024-03-01 10:30 pm-------30.25- 60.4 56.1----
2024-03-01 10:24 pm-------30.26- 60.1 56.1----
2024-03-01 10:18 pm-------30.25- 60.4 56.1----
2024-03-01 10:12 pm-------30.25- 60.4 56.1----
2024-03-01 10:06 pm-------30.26- 60.6 56.1----
2024-03-01 10:00 pm-------30.26-0.05 61.0 56.1----
2024-03-01 09:54 pm-------30.27- 61.0 55.9----
2024-03-01 09:48 pm-------30.27- 60.8 55.9----
2024-03-01 09:42 pm-------30.27- 60.8 55.9----
2024-03-01 09:36 pm-------30.27- 60.6 55.9----
2024-03-01 09:30 pm-------30.27- 60.8 55.9----
2024-03-01 09:24 pm-------30.27- 61.0 55.9----
2024-03-01 09:18 pm-------30.27- 61.0 55.8----
2024-03-01 09:12 pm-------30.27- 61.2 55.8----
2024-03-01 09:06 pm-------30.27- 61.2 55.8----
2024-03-01 09:00 pm-------30.27-0.05 61.0 55.6----
2024-03-01 08:54 pm-------30.28- 61.2 55.6----
2024-03-01 08:48 pm-------30.28- 61.2 55.6----
2024-03-01 08:42 pm-------30.28- 61.2 55.6----
2024-03-01 08:36 pm-------30.29- 60.6 55.6----
2024-03-01 08:30 pm-------30.29- 60.6 55.4----
2024-03-01 08:24 pm-------30.29- 60.1 55.4----
2024-03-01 08:18 pm-------30.29- 59.9 55.4----
2024-03-01 08:12 pm-------30.29- 59.7 55.4----
2024-03-01 08:06 pm-------30.29- 59.7 55.4----
2024-03-01 08:00 pm-------30.29-0.05 59.9 55.6----
2024-03-01 07:54 pm-------30.29- 59.9 55.6----
2024-03-01 07:48 pm-------30.29- 60.1 55.6----
2024-03-01 07:42 pm-------30.29- 60.4 55.6----
2024-03-01 07:36 pm-------30.30- 60.3 55.6----
2024-03-01 07:30 pm-------30.30- 60.3 55.6----
2024-03-01 07:24 pm-------30.30- 60.3 55.6----
2024-03-01 07:18 pm-------30.30- 60.3 55.8----
2024-03-01 07:12 pm-------30.30- 60.3 55.8----
2024-03-01 07:06 pm-------30.30- 60.1 55.8----
2024-03-01 07:00 pm-------30.31-0.05 60.1 55.8----
2024-03-01 06:54 pm-------30.31- 59.7 55.9----
2024-03-01 06:48 pm-------30.31- 59.7 55.9----
2024-03-01 06:42 pm-------30.32- 59.7 55.9----
2024-03-01 06:36 pm-------30.32- 59.7 55.9----
2024-03-01 06:30 pm-------30.32- 59.7 55.9----
2024-03-01 06:24 pm-------30.32- 59.7 56.1----
2024-03-01 06:18 pm-------30.32- 59.7 55.9----
2024-03-01 06:00 pm-------30.32-0.05 59.5 56.1----
2024-03-01 05:54 pm-------30.32- 59.4 56.3----
2024-03-01 05:48 pm-------30.33- 59.4 56.3----
2024-03-01 05:42 pm-------30.33- 59.2 56.5----
2024-03-01 05:36 pm-------30.33- 59.0 56.5----
2024-03-01 05:30 pm-------30.33- 59.2 56.5----
2024-03-01 05:24 pm-------30.33- 59.2 56.5----
2024-03-01 05:18 pm-------30.34- 59.2 56.3----
2024-03-01 05:12 pm-------30.35- 59.2 56.3----
2024-03-01 05:06 pm-------30.35- 59.2 56.3----
2024-03-01 05:00 pm-------30.35-0.04 59.5 56.3----
2024-03-01 04:54 pm-------30.35- 59.5 56.5----
2024-03-01 04:48 pm-------30.35- 59.7 56.5----
2024-03-01 04:42 pm-------30.35- 59.7 56.3----
2024-03-01 04:36 pm-------30.35- 59.9 56.3----
2024-03-01 04:30 pm-------30.35- 59.9 56.3----
2024-03-01 04:24 pm-------30.36- 60.1 56.3----
2024-03-01 04:18 pm-------30.35- 60.1 56.3----
2024-03-01 04:12 pm-------30.36- 60.3 56.3----
2024-03-01 04:06 pm-------30.36- 60.3 56.3----
2024-03-01 04:00 pm-------30.36-0.05 60.4 56.3----
2024-03-01 03:54 pm-------30.36- 60.3 56.3----
2024-03-01 03:48 pm-------30.37- 60.4 56.3----
2024-03-01 03:42 pm-------30.36- 60.3 56.3----
2024-03-01 03:36 pm-------30.36- 60.3 56.5----
2024-03-01 03:30 pm-------30.37- 60.4 56.5----
2024-03-01 03:24 pm-------30.37- 60.4 56.5----
2024-03-01 03:18 pm-------30.37- 60.4 56.5----
2024-03-01 03:12 pm-------30.37- 60.4 56.5----
2024-03-01 03:06 pm-------30.37- 60.6 56.3----
2024-03-01 03:00 pm-------30.37-0.05 61.0 56.3----
2024-03-01 02:54 pm-------30.38- 61.2 56.3----
2024-03-01 02:48 pm-------30.38- 61.3 56.3----
2024-03-01 02:42 pm-------30.38- 61.3 56.5----
2024-03-01 02:36 pm-------30.38- 61.5 56.5----
2024-03-01 02:30 pm-------30.38- 61.5 56.3----
2024-03-01 02:24 pm-------30.39- 61.9 56.3----
2024-03-01 02:18 pm-------30.39- 62.1 56.1----
2024-03-01 02:12 pm-------30.39- 62.4 56.1----
2024-03-01 02:06 pm-------30.39- 62.6 56.1----
2024-03-01 02:00 pm-------30.38-0.05 62.6 56.1----
2024-03-01 01:54 pm-------30.38- 62.6 55.9----
2024-03-01 01:48 pm-------30.39- 62.4 55.9----
2024-03-01 01:42 pm-------30.39- 62.2 55.9----
2024-03-01 01:36 pm-------30.39- 62.4 55.9----
2024-03-01 01:30 pm-------30.39- 62.4 55.9----
2024-03-01 01:24 pm-------30.40- 62.2 55.9----
2024-03-01 01:18 pm-------30.40- 62.4 55.9----
2024-03-01 01:12 pm-------30.40- 62.6 55.9----
2024-03-01 01:06 pm-------30.40- 62.4 55.9----
2024-03-01 01:00 pm-------30.41-0.03 62.6 55.9----
2024-03-01 12:54 pm-------30.41- 63.1 55.9----
2024-03-01 12:48 pm-------30.41- 64.0 55.9----
2024-03-01 12:42 pm-------30.41- 63.9 55.9----
2024-03-01 12:36 pm-------30.41- 63.9 55.8----
2024-03-01 12:30 pm-------30.41- 63.9 55.8----
2024-03-01 12:24 pm-------30.41- 63.9 55.8----
2024-03-01 12:18 pm-------30.41- 63.1 55.8----
2024-03-01 12:12 pm-------30.42- 63.9 55.8----
2024-03-01 12:06 pm-------30.42- 63.9 55.8----
2024-03-01 12:00 pm-------30.42-0.02 64.4 55.8----
2024-03-01 11:54 am-------30.43- 63.9 55.8----
2024-03-01 11:48 am-------30.43- 63.3 55.8----
2024-03-01 11:42 am-------30.43- 62.6 55.8----
2024-03-01 11:36 am-------30.43- 63.1 55.8----
2024-03-01 11:30 am-------30.43- 63.0 55.8----
2024-03-01 11:24 am-------30.43- 63.5 55.8----
2024-03-01 11:18 am-------30.43- 63.0 55.8----
2024-03-01 11:12 am-------30.43- 62.1 55.8----
2024-03-01 11:06 am-------30.43- 61.5 55.8----
2024-03-01 11:00 am-------30.43+0.00 61.2 55.8----
2024-03-01 10:54 am-------30.43- 60.8 55.8----
2024-03-01 10:48 am-------30.43- 60.4 55.8----
2024-03-01 10:42 am-------30.43- 60.1 55.8----
2024-03-01 10:36 am-------30.44- 59.4 55.8----
2024-03-01 10:30 am-------30.44- 59.2 55.8----
2024-03-01 10:24 am-------30.45- 59.0 55.8----
2024-03-01 10:18 am-------30.45- 58.6 55.6----
2024-03-01 10:12 am-------30.44- 58.5 55.6----
2024-03-01 10:06 am-------30.44- 58.5 55.6----
2024-03-01 10:00 am-------30.43-0.01 57.9 55.6----
2024-03-01 09:54 am-------30.43- 57.6 55.6----
2024-03-01 09:48 am-------30.43- 57.0 55.6----
2024-03-01 09:42 am-------30.43- 56.8 55.4----
2024-03-01 09:36 am-------30.43- 56.7 55.2----
2024-03-01 09:30 am-------30.43- 56.5 54.9----
2024-03-01 09:24 am-------30.44- 55.9 54.9----
2024-03-01 09:18 am-------30.44- 55.9 54.9----
2024-03-01 09:12 am-------30.44- 55.9 54.9----
2024-03-01 09:06 am-------30.45- 55.6 54.9----
2024-03-01 09:00 am-------30.45+0.01 54.7 54.9----
2024-03-01 08:54 am-------30.45- 54.5 55.0----
2024-03-01 08:48 am-------30.44- 54.3 55.0----
2024-03-01 08:42 am-------30.44- 54.5 55.0----
2024-03-01 08:36 am-------30.44- 54.7 55.0----
2024-03-01 08:30 am-------30.43- 54.0 55.0----
2024-03-01 08:24 am-------30.43- 53.8 55.0----
2024-03-01 08:18 am-------30.43- 53.4 55.0----
2024-03-01 08:12 am-------30.43- 53.1 55.0----
2024-03-01 08:06 am-------30.44- 52.9 55.0----
2024-03-01 08:00 am-------30.44+0.00 52.5 55.0----
2024-03-01 07:54 am-------30.44- 52.3 55.0----
2024-03-01 07:48 am-------30.43- 52.0 55.2----
2024-03-01 07:42 am-------30.44- 51.4 55.2----
2024-03-01 07:36 am-------30.44- 50.5 55.2----
2024-03-01 07:30 am-------30.44- 49.8 55.2----
2024-03-01 07:24 am-------30.43- 49.5 55.2----
2024-03-01 07:18 am-------30.43- 49.1 55.2----
2024-03-01 07:12 am-------30.44- 48.7 55.2----
2024-03-01 07:06 am-------30.45- 48.7 55.2----
2024-03-01 07:00 am-------30.45+0.01 48.6 55.4----
2024-03-01 06:54 am-------30.44- 48.7 55.4----
2024-03-01 06:48 am-------30.43- 48.9 55.4----
2024-03-01 06:42 am-------30.43- 48.9 55.4----
2024-03-01 06:36 am-------30.43- 48.9 55.2----
2024-03-01 06:30 am-------30.43- 48.6 55.2----
2024-03-01 06:24 am-------30.42- 48.4 55.4----
2024-03-01 06:18 am-------30.43- 48.6 55.4----
2024-03-01 06:12 am-------30.43- 48.4 55.4----
2024-03-01 06:06 am-------30.44- 48.7 55.4----
2024-03-01 06:00 am-------30.44+0.00 48.4 55.4----
2024-03-01 05:54 am-------30.44- 48.4 55.4----
2024-03-01 05:48 am-------30.43- 48.6 55.4----
2024-03-01 05:42 am-------30.43- 48.6 55.4----
2024-03-01 05:36 am-------30.43- 48.7 55.6----
2024-03-01 05:30 am-------30.43- 48.6 55.6----
2024-03-01 05:24 am-------30.44- 48.6 55.6----
2024-03-01 05:18 am-------30.44- 48.6 55.6----
2024-03-01 05:12 am-------30.44- 48.7 55.6----
2024-03-01 05:06 am-------30.45- 48.7 55.8----
2024-03-01 05:00 am-------30.45+0.02 48.9 55.8----
2024-03-01 04:54 am-------30.44- 48.9 55.8----
2024-03-01 04:48 am-------30.44- 48.9 55.8----
2024-03-01 04:42 am-------30.44- 48.9 55.8----
2024-03-01 04:36 am-------30.44- 48.9 55.8----
2024-03-01 04:30 am-------30.44- 48.9 55.8----
2024-03-01 04:24 am-------30.44- 48.7 55.8----
2024-03-01 04:18 am-------30.44- 48.6 55.8----
2024-03-01 04:12 am-------30.43- 48.6 55.8----
2024-03-01 04:06 am-------30.43- 48.6 55.8----
2024-03-01 04:00 am-------30.44+0.01 48.6 55.8----
2024-03-01 03:54 am-------30.44- 48.6 55.8----
2024-03-01 03:48 am-------30.43- 48.4 55.8----
2024-03-01 03:42 am-------30.43- 48.6 55.8----
2024-03-01 03:36 am-------30.43- 48.6 55.8----
2024-03-01 03:30 am-------30.44- 48.7 55.8----
2024-03-01 03:24 am-------30.44- 48.6 55.8----
2024-03-01 03:18 am-------30.44- 48.6 55.8----
2024-03-01 03:12 am-------30.43- 48.6 55.8----
2024-03-01 03:06 am-------30.43- 48.7 55.8----
2024-03-01 03:00 am-------30.44+0.01 48.7 55.8----
2024-03-01 02:54 am-------30.44- 48.7 55.8----
2024-03-01 02:48 am-------30.44- 48.7 55.9----
2024-03-01 02:42 am-------30.44- 48.9 55.9----
2024-03-01 02:36 am-------30.44- 49.1 55.9----
2024-03-01 02:30 am-------30.43- 49.1 55.9----
2024-03-01 02:24 am-------30.43- 49.1 55.9----
2024-03-01 02:18 am-------30.43- 48.9 55.9----
2024-03-01 02:12 am-------30.43- 48.9 55.9----
2024-03-01 02:06 am-------30.43- 48.7 55.9----
2024-03-01 02:00 am-------30.42+0.00 48.9 55.9----
2024-03-01 01:54 am-------30.42- 48.7 55.9----
2024-03-01 01:48 am-------30.42- 48.9 55.9----
2024-03-01 01:42 am-------30.43- 48.9 55.9----
2024-03-01 01:36 am-------30.42- 48.7 55.9----
2024-03-01 01:30 am-------30.42- 48.6 55.9----
2024-03-01 01:24 am-------30.42- 48.7 55.9----
2024-03-01 01:18 am-------30.43- 48.9 55.9----
2024-03-01 01:12 am-------30.43- 48.9 55.9----
2024-03-01 01:06 am-------30.42- 48.9 55.9----
2024-03-01 01:00 am-------30.43-0.01- 55.9----
2024-03-01 12:54 am-------30.43-- 55.9----
2024-03-01 12:48 am-------30.43- 49.3 55.9----
2024-03-01 12:42 am-------30.43- 49.1 55.9----
2024-03-01 12:36 am-------30.43- 49.1 55.9----
2024-03-01 12:30 am-------30.43- 49.3 55.9----
2024-03-01 12:24 am-------30.43- 49.1 55.9----
2024-03-01 12:18 am-------30.42- 48.9 55.9----
2024-03-01 12:12 am-------30.42- 49.1 55.9----
2024-03-01 12:06 am-------30.42- 48.9 55.9----
2024-03-01 12:00 am-------30.42-0.03 48.9 55.9----
2024-02-29 11:54 pm-------30.42- 48.7 55.9----